Time,TemperatureF,DewpointF,PressureIn,WindDirection,WindDirectionDegrees,WindSpeedMPH,WindSpeedGustMPH,Humidity,HourlyPrecipIn,Conditions,Clouds,dailyrainin,SoftwareType,DateUTC
2013-02-12 00:00:00,45.9,44.6,29.75,North,0,8.5,8.7,95,0.00,,,0.40,WUHU216HW,2013-02-12 05:00:00,
2013-02-12 00:05:00,45.7,44.1,29.75,North,0,6.5,9.2,94,0.00,,,0.00,WUHU216HW,2013-02-12 05:05:00,
2013-02-12 00:10:00,45.5,43.1,29.76,NNE,23,7.4,9.2,91,0.00,,,0.00,WUHU216HW,2013-02-12 05:10:00,
2013-02-12 00:15:00,45.4,42.9,29.76,NNW,338,6.3,9.6,91,0.00,,,0.00,WUHU216HW,2013-02-12 05:15:00,
2013-02-12 00:20:00,45.2,42.5,29.76,NNE,23,5.4,9.6,90,0.00,,,0.00,WUHU216HW,2013-02-12 05:20:00,
2013-02-12 00:25:00,45.2,41.9,29.77,North,0,3.1,9.6,88,0.00,,,0.00,WUHU216HW,2013-02-12 05:25:00,
2013-02-12 00:30:00,45.2,41.9,29.77,NNW,338,2.7,9.6,88,0.00,,,0.00,WUHU216HW,2013-02-12 05:30:00,
2013-02-12 00:35:00,45.0,41.7,29.77,North,0,5.4,5.8,88,0.00,,,0.00,WUHU216HW,2013-02-12 05:35:00,
2013-02-12 00:40:00,44.8,41.5,29.78,NNE,23,3.4,5.6,88,0.00,,,0.00,WUHU216HW,2013-02-12 05:40:00,
2013-02-12 00:45:00,44.8,41.5,29.78,NNE,23,4.0,5.4,88,0.00,,,0.00,WUHU216HW,2013-02-12 05:45:00,
2013-02-12 00:50:00,44.6,41.1,29.78,North,0,2.5,7.4,87,0.00,,,0.00,WUHU216HW,2013-02-12 05:50:00,
2013-02-12 00:55:00,44.5,40.5,29.78,North,0,3.8,7.4,86,0.00,,,0.00,WUHU216HW,2013-02-12 05:55:00,
2013-02-12 01:00:00,44.3,40.3,29.79,North,0,2.7,6.7,86,0.00,,,0.00,WUHU216HW,2013-02-12 06:00:00,
2013-02-12 01:05:00,44.1,40.5,29.79,North,0,2.5,4.7,87,0.00,,,0.00,WUHU216HW,2013-02-12 06:05:00,
2013-02-12 01:10:00,43.7,40.2,29.79,North,0,2.0,5.1,87,0.00,,,0.00,WUHU216HW,2013-02-12 06:10:00,
2013-02-12 01:15:00,43.6,40.0,29.79,NNW,338,1.1,5.4,87,0.00,,,0.00,WUHU216HW,2013-02-12 06:15:00,
2013-02-12 01:20:00,43.6,40.0,29.79,North,0,1.8,5.4,87,0.00,,,0.00,WUHU216HW,2013-02-12 06:20:00,
2013-02-12 01:25:00,43.4,39.4,29.80,North,0,3.4,6.0,86,0.00,,,0.00,WUHU216HW,2013-02-12 06:25:00,
2013-02-12 01:30:00,43.4,39.8,29.80,North,0,1.3,6.0,87,0.00,,,0.00,WUHU216HW,2013-02-12 06:30:00,
2013-02-12 01:35:00,43.2,39.0,29.80,North,0,1.8,6.3,85,0.00,,,0.00,WUHU216HW,2013-02-12 06:35:00,
2013-02-12 01:40:00,43.0,38.8,29.80,North,0,1.8,6.3,85,0.00,,,0.00,WUHU216HW,2013-02-12 06:40:00,
2013-02-12 01:45:00,42.8,38.6,29.80,NNE,23,1.8,4.5,85,0.00,,,0.00,WUHU216HW,2013-02-12 06:45:00,
2013-02-12 01:50:00,42.7,38.7,29.80,NNW,338,1.1,4.5,86,0.00,,,0.00,WUHU216HW,2013-02-12 06:50:00,
2013-02-12 01:55:00,42.5,38.5,29.79,NW,315,0.0,4.5,86,0.00,,,0.00,WUHU216HW,2013-02-12 06:55:00,
2013-02-12 02:00:00,42.1,38.2,29.80,NNW,338,0.0,1.1,86,0.00,,,0.00,WUHU216HW,2013-02-12 07:00:00,
2013-02-12 02:05:00,41.8,37.8,29.79,North,0,0.9,1.3,86,0.00,,,0.00,WUHU216HW,2013-02-12 07:05:00,
2013-02-12 02:10:00,41.4,37.8,29.80,NNW,338,0.2,2.5,87,0.00,,,0.00,WUHU216HW,2013-02-12 07:10:00,
2013-02-12 02:15:00,41.2,37.6,29.80,NW,315,0.4,2.5,87,0.00,,,0.00,WUHU216HW,2013-02-12 07:15:00,
2013-02-12 02:20:00,40.9,37.3,29.81,North,0,0.4,1.1,87,0.00,,,0.00,WUHU216HW,2013-02-12 07:20:00,
2013-02-12 02:25:00,40.7,37.1,29.81,NNW,338,0.0,2.2,87,0.00,,,0.00,WUHU216HW,2013-02-12 07:25:00,
2013-02-12 02:30:00,40.5,37.2,29.81,NNW,338,0.0,2.2,88,0.00,,,0.00,WUHU216HW,2013-02-12 07:30:00,
2013-02-12 02:35:00,40.3,37.0,29.81,NNW,338,0.0,0.4,88,0.00,,,0.00,WUHU216HW,2013-02-12 07:35:00,
2013-02-12 02:40:00,40.0,36.6,29.82,NNW,338,0.0,0.0,88,0.00,,,0.00,WUHU216HW,2013-02-12 07:40:00,
2013-02-12 02:45:00,39.6,36.4,29.81,NNW,338,0.0,0.0,88,0.00,,,0.00,WUHU216HW,2013-02-12 07:45:00,
2013-02-12 02:51:00,39.2,36.3,29.81,NNW,338,0.0,0.0,89,0.00,,,0.00,WUHU216HW,2013-02-12 07:51:00,
2013-02-12 02:56:00,39.1,36.1,29.82,WNW,293,0.0,0.0,89,0.00,,,0.00,WUHU216HW,2013-02-12 07:56:00,
2013-02-12 03:01:00,38.9,35.9,29.82,North,0,0.2,0.2,89,0.00,,,0.00,WUHU216HW,2013-02-12 08:01:00,
2013-02-12 03:06:00,38.9,35.9,29.82,NNW,338,0.2,1.1,89,0.00,,,0.00,WUHU216HW,2013-02-12 08:06:00,
2013-02-12 03:11:00,38.7,36.0,29.82,North,0,0.4,2.2,90,0.00,,,0.00,WUHU216HW,2013-02-12 08:11:00,
2013-02-12 03:16:00,38.7,36.0,29.83,WSW,248,0.9,2.2,90,0.01,,,0.01,WUHU216HW,2013-02-12 08:16:00,
2013-02-12 03:21:00,38.7,36.0,29.83,NW,315,0.4,1.6,90,0.01,,,0.01,WUHU216HW,2013-02-12 08:21:00,
2013-02-12 03:26:00,38.5,35.8,29.83,North,0,0.0,1.8,90,0.01,,,0.01,WUHU216HW,2013-02-12 08:26:00,
2013-02-12 03:31:00,38.5,35.6,29.82,NNW,338,0.4,1.8,89,0.01,,,0.01,WUHU216HW,2013-02-12 08:31:00,
2013-02-12 03:36:00,38.5,35.6,29.83,West,270,2.2,2.2,89,0.01,,,0.01,WUHU216HW,2013-02-12 08:36:00,
2013-02-12 03:41:00,38.3,35.1,29.83,NNW,338,1.1,4.3,88,0.01,,,0.01,WUHU216HW,2013-02-12 08:41:00,
2013-02-12 03:46:00,38.3,35.1,29.83,NNW,338,0.7,4.3,88,0.01,,,0.01,WUHU216HW,2013-02-12 08:46:00,
2013-02-12 03:51:00,38.3,35.1,29.83,NNW,338,0.0,2.5,88,0.01,,,0.01,WUHU216HW,2013-02-12 08:51:00,
2013-02-12 03:56:00,38.2,34.9,29.83,NNW,338,0.0,1.8,88,0.01,,,0.01,WUHU216HW,2013-02-12 08:56:00,
2013-02-12 04:01:00,38.0,34.4,29.83,NNW,338,0.4,0.4,87,0.01,,,0.01,WUHU216HW,2013-02-12 09:01:00,
2013-02-12 04:06:00,37.8,34.2,29.83,NNW,338,0.2,1.3,87,0.01,,,0.01,WUHU216HW,2013-02-12 09:06:00,
2013-02-12 04:11:00,37.6,34.0,29.83,NNW,338,0.7,1.6,87,0.01,,,0.01,WUHU216HW,2013-02-12 09:11:00,
2013-02-12 04:16:00,37.8,34.2,29.83,NNW,338,0.2,1.6,87,0.00,,,0.01,WUHU216HW,2013-02-12 09:16:00,
2013-02-12 04:21:00,37.8,34.2,29.83,North,0,0.0,1.8,87,0.00,,,0.01,WUHU216HW,2013-02-12 09:21:00,
2013-02-12 04:26:00,37.6,33.8,29.83,NW,315,0.4,1.8,86,0.00,,,0.01,WUHU216HW,2013-02-12 09:26:00,
2013-02-12 04:31:00,37.4,33.6,29.83,NNW,338,0.7,1.3,86,0.00,,,0.01,WUHU216HW,2013-02-12 09:31:00,
2013-02-12 04:36:00,37.4,33.6,29.84,NNW,338,0.0,1.3,86,0.00,,,0.01,WUHU216HW,2013-02-12 09:36:00,
2013-02-12 04:41:00,37.3,33.4,29.84,NNW,338,0.9,1.1,86,0.00,,,0.01,WUHU216HW,2013-02-12 09:41:00,
2013-02-12 04:46:00,37.1,33.2,29.84,West,270,1.3,1.3,86,0.00,,,0.01,WUHU216HW,2013-02-12 09:46:00,
2013-02-12 04:51:00,36.9,33.0,29.84,West,270,0.0,1.3,86,0.00,,,0.01,WUHU216HW,2013-02-12 09:51:00,
2013-02-12 04:56:00,36.7,32.9,29.84,NW,315,0.0,1.3,86,0.00,,,0.01,WUHU216HW,2013-02-12 09:56:00,
2013-02-12 05:01:00,36.5,32.7,29.84,West,270,1.1,1.8,86,0.00,,,0.01,WUHU216HW,2013-02-12 10:01:00,
2013-02-12 05:06:00,36.2,32.3,29.85,WNW,293,0.0,1.8,86,0.00,,,0.01,WUHU216HW,2013-02-12 10:06:00,
2013-02-12 05:11:00,36.0,32.1,29.85,NW,315,0.0,1.1,86,0.00,,,0.01,WUHU216HW,2013-02-12 10:11:00,
2013-02-12 05:16:00,35.8,32.2,29.86,NW,315,0.9,0.9,87,0.00,,,0.01,WUHU216HW,2013-02-12 10:16:00,
2013-02-12 05:21:00,35.8,32.2,29.86,WNW,293,0.2,1.1,87,0.00,,,0.01,WUHU216HW,2013-02-12 10:21:00,
2013-02-12 05:26:00,35.8,32.2,29.86,WNW,293,1.1,1.1,87,0.00,,,0.01,WUHU216HW,2013-02-12 10:26:00,
2013-02-12 05:31:00,35.6,31.8,29.86,West,270,0.0,1.1,86,0.00,,,0.01,WUHU216HW,2013-02-12 10:31:00,
2013-02-12 05:36:00,35.6,31.8,29.86,WNW,293,0.0,1.1,86,0.00,,,0.01,WUHU216HW,2013-02-12 10:36:00,
2013-02-12 05:41:00,35.5,31.6,29.86,NW,315,0.4,0.4,86,0.00,,,0.01,WUHU216HW,2013-02-12 10:41:00,
2013-02-12 05:46:00,35.3,31.4,29.87,NW,315,1.1,1.6,86,0.00,,,0.01,WUHU216HW,2013-02-12 10:46:00,
2013-02-12 05:51:00,35.3,31.7,29.87,West,270,0.0,2.5,87,0.00,,,0.01,WUHU216HW,2013-02-12 10:51:00,
2013-02-12 05:56:00,35.3,31.7,29.87,NW,315,0.0,2.5,87,0.00,,,0.01,WUHU216HW,2013-02-12 10:56:00,
2013-02-12 06:01:00,35.3,31.7,29.87,West,270,0.7,1.1,87,0.00,,,0.01,WUHU216HW,2013-02-12 11:01:00,
2013-02-12 06:06:00,35.3,31.7,29.88,NW,315,1.3,1.8,87,0.00,,,0.01,WUHU216HW,2013-02-12 11:06:00,
2013-02-12 06:12:00,35.3,31.7,29.88,West,270,1.8,2.5,87,0.00,,,0.01,WUHU216HW,2013-02-12 11:12:00,
2013-02-12 06:17:00,35.3,31.7,29.89,WNW,293,2.5,3.6,87,0.00,,,0.01,WUHU216HW,2013-02-12 11:17:00,
2013-02-12 06:22:00,35.5,31.6,29.89,WSW,248,0.9,3.6,86,0.00,,,0.01,WUHU216HW,2013-02-12 11:22:00,
2013-02-12 06:27:00,35.6,31.8,29.89,West,270,1.3,2.9,86,0.00,,,0.01,WUHU216HW,2013-02-12 11:27:00,
2013-02-12 06:32:00,35.6,31.8,29.89,WNW,293,0.9,2.5,86,0.00,,,0.01,WUHU216HW,2013-02-12 11:32:00,
2013-02-12 06:37:00,35.8,32.0,29.89,West,270,1.6,3.4,86,0.00,,,0.01,WUHU216HW,2013-02-12 11:37:00,
2013-02-12 06:42:00,35.8,32.2,29.89,West,270,1.8,3.4,87,0.00,,,0.01,WUHU216HW,2013-02-12 11:42:00,
2013-02-12 06:47:00,35.8,32.0,29.89,West,270,2.9,2.9,86,0.00,,,0.01,WUHU216HW,2013-02-12 11:47:00,
2013-02-12 06:52:00,36.0,32.1,29.90,WNW,293,1.1,2.9,86,0.00,,,0.01,WUHU216HW,2013-02-12 11:52:00,
2013-02-12 06:57:00,36.0,32.1,29.90,WNW,293,2.5,2.5,86,0.00,,,0.01,WUHU216HW,2013-02-12 11:57:00,
2013-02-12 07:02:00,36.2,32.3,29.90,NW,315,2.2,2.9,86,0.00,,,0.01,WUHU216HW,2013-02-12 12:02:00,
2013-02-12 07:07:00,36.2,32.3,29.90,NW,315,1.6,3.4,86,0.00,,,0.01,WUHU216HW,2013-02-12 12:07:00,
2013-02-12 07:12:00,36.4,32.5,29.90,West,270,1.6,3.4,86,0.00,,,0.01,WUHU216HW,2013-02-12 12:12:00,
2013-02-12 07:17:00,36.2,32.0,29.90,West,270,1.1,3.1,85,0.00,,,0.01,WUHU216HW,2013-02-12 12:17:00,
2013-02-12 07:22:00,36.2,32.0,29.91,West,270,1.3,2.9,85,0.00,,,0.01,WUHU216HW,2013-02-12 12:22:00,
2013-02-12 07:27:00,36.2,32.0,29.91,NNW,338,0.9,2.9,85,0.00,,,0.01,WUHU216HW,2013-02-12 12:27:00,
2013-02-12 07:32:00,36.2,32.0,29.91,NW,315,2.2,2.5,85,0.00,,,0.01,WUHU216HW,2013-02-12 12:32:00,
2013-02-12 07:37:00,36.2,32.0,29.91,NW,315,2.7,2.7,85,0.00,,,0.01,WUHU216HW,2013-02-12 12:37:00,
2013-02-12 07:42:00,36.4,32.0,29.92,North,0,1.6,4.3,84,0.00,,,0.01,WUHU216HW,2013-02-12 12:42:00,
2013-02-12 07:47:00,36.4,32.0,29.92,West,270,2.5,4.3,84,0.00,,,0.01,WUHU216HW,2013-02-12 12:47:00,
2013-02-12 07:52:00,37.4,33.0,29.92,WSW,248,2.2,4.5,84,0.00,,,0.01,WUHU216HW,2013-02-12 12:52:00,
2013-02-12 07:57:00,38.3,33.9,29.93,NNW,338,0.7,4.5,84,0.00,,,0.01,WUHU216HW,2013-02-12 12:57:00,
2013-02-12 08:02:00,38.5,33.5,29.93,West,270,1.8,3.6,82,0.00,,,0.01,WUHU216HW,2013-02-12 13:02:00,
2013-02-12 08:07:00,38.7,33.7,29.93,West,270,2.5,4.7,82,0.00,,,0.01,WUHU216HW,2013-02-12 13:07:00,
2013-02-12 08:12:00,38.5,33.5,29.93,WSW,248,2.5,4.7,82,0.00,,,0.01,WUHU216HW,2013-02-12 13:12:00,
2013-02-12 08:17:00,38.5,33.2,29.93,WSW,248,1.3,4.7,81,0.00,,,0.01,WUHU216HW,2013-02-12 13:17:00,
2013-02-12 08:22:00,38.5,33.2,29.93,West,270,1.3,4.7,81,0.00,,,0.01,WUHU216HW,2013-02-12 13:22:00,
2013-02-12 08:27:00,38.5,33.2,29.93,NW,315,2.2,4.3,81,0.00,,,0.01,WUHU216HW,2013-02-12 13:27:00,
2013-02-12 08:32:00,38.7,33.1,29.93,West,270,4.0,4.5,80,0.00,,,0.01,WUHU216HW,2013-02-12 13:32:00,
2013-02-12 08:37:00,38.9,33.3,29.93,WNW,293,4.0,4.7,80,0.00,,,0.01,WUHU216HW,2013-02-12 13:37:00,
2013-02-12 08:42:00,39.1,33.5,29.94,NW,315,1.8,4.7,80,0.00,,,0.01,WUHU216HW,2013-02-12 13:42:00,
2013-02-12 08:47:00,39.2,33.3,29.94,West,270,6.5,6.5,79,0.00,,,0.01,WUHU216HW,2013-02-12 13:47:00,
2013-02-12 08:52:00,39.6,34.0,29.94,West,270,2.5,6.5,80,0.00,,,0.01,WUHU216HW,2013-02-12 13:52:00,
2013-02-12 08:57:00,40.1,34.1,29.94,NW,315,2.5,4.9,79,0.00,,,0.01,WUHU216HW,2013-02-12 13:57:00,
2013-02-12 09:02:00,40.7,33.9,29.94,WSW,248,5.4,5.8,77,0.00,,,0.01,WUHU216HW,2013-02-12 14:02:00,
2013-02-12 09:07:00,41.0,34.0,29.94,NNW,338,5.4,7.2,76,0.00,,,0.01,WUHU216HW,2013-02-12 14:07:00,
2013-02-12 09:12:00,41.2,33.8,29.93,NNW,338,3.8,7.2,75,0.00,,,0.01,WUHU216HW,2013-02-12 14:12:00,
2013-02-12 09:17:00,41.4,33.4,29.93,West,270,4.5,7.6,73,0.00,,,0.01,WUHU216HW,2013-02-12 14:17:00,
2013-02-12 09:22:00,41.6,33.8,29.93,WSW,248,2.5,7.6,74,0.00,,,0.01,WUHU216HW,2013-02-12 14:22:00,
2013-02-12 09:27:00,41.8,33.8,29.93,WNW,293,1.8,6.3,73,0.00,,,0.01,WUHU216HW,2013-02-12 14:27:00,
2013-02-12 09:32:00,42.1,34.4,29.93,WNW,293,1.8,6.3,74,0.00,,,0.01,WUHU216HW,2013-02-12 14:32:00,
2013-02-12 09:37:00,42.8,34.5,29.94,ENE,68,2.5,4.0,72,0.00,,,0.01,WUHU216HW,2013-02-12 14:37:00,
2013-02-12 09:42:00,43.6,33.0,29.93,NW,315,2.9,10.7,66,0.00,,,0.01,WUHU216HW,2013-02-12 14:42:00,
2013-02-12 09:47:00,44.1,33.0,29.94,West,270,2.7,10.7,65,0.00,,,0.01,WUHU216HW,2013-02-12 14:47:00,
2013-02-12 09:52:00,44.3,32.5,29.94,North,0,4.0,6.3,63,0.00,,,0.01,WUHU216HW,2013-02-12 14:52:00,
2013-02-12 09:57:00,44.3,30.4,29.94,NNE,23,6.7,8.5,58,0.00,,,0.01,WUHU216HW,2013-02-12 14:57:00,
2013-02-12 10:02:00,44.3,30.9,29.94,NE,45,3.1,10.5,59,0.00,,,0.01,WUHU216HW,2013-02-12 15:02:00,
2013-02-12 10:07:00,44.3,30.9,29.94,NNE,23,3.1,10.5,59,0.00,,,0.01,WUHU216HW,2013-02-12 15:07:00,
2013-02-12 10:12:00,44.5,31.9,29.94,NW,315,3.6,4.7,61,0.00,,,0.01,WUHU216HW,2013-02-12 15:12:00,
2013-02-12 10:17:00,44.5,30.2,29.93,ENE,68,5.4,10.5,57,0.00,,,0.01,WUHU216HW,2013-02-12 15:17:00,
2013-02-12 10:22:00,45.0,31.2,29.93,North,0,2.2,10.5,58,0.00,,,0.01,WUHU216HW,2013-02-12 15:22:00,
2013-02-12 10:27:00,45.4,31.0,29.93,NE,45,1.3,7.2,57,0.00,,,0.01,WUHU216HW,2013-02-12 15:27:00,
2013-02-12 10:32:00,45.7,29.1,29.93,NNE,23,11.4,11.4,52,0.00,,,0.01,WUHU216HW,2013-02-12 15:32:00,
2013-02-12 10:37:00,45.7,29.5,29.93,NNE,23,8.5,11.4,53,0.00,,,0.01,WUHU216HW,2013-02-12 15:37:00,
2013-02-12 10:42:00,45.7,29.5,29.93,NNW,338,4.9,13.4,53,0.00,,,0.01,WUHU216HW,2013-02-12 15:42:00,
2013-02-12 10:47:00,45.9,30.2,29.93,NNW,338,3.8,13.4,54,0.00,,,0.01,WUHU216HW,2013-02-12 15:47:00,
2013-02-12 10:52:00,46.4,30.6,29.93,WSW,248,4.7,8.5,54,0.00,,,0.01,WUHU216HW,2013-02-12 15:52:00,
2013-02-12 10:57:00,46.8,30.5,29.93,NNW,338,4.3,7.8,53,0.00,,,0.01,WUHU216HW,2013-02-12 15:57:00,
2013-02-12 11:02:00,47.2,31.3,29.93,ENE,68,2.7,7.8,54,0.00,,,0.01,WUHU216HW,2013-02-12 16:02:00,
2013-02-12 11:07:00,47.2,29.9,29.93,NE,45,4.3,7.6,51,0.00,,,0.01,WUHU216HW,2013-02-12 16:07:00,
2013-02-12 11:12:00,47.9,31.5,29.93,NNE,23,4.0,5.4,53,0.00,,,0.01,WUHU216HW,2013-02-12 16:12:00,
2013-02-12 11:17:00,47.9,30.6,29.94,NNW,338,3.4,6.9,51,0.00,,,0.01,WUHU216HW,2013-02-12 16:17:00,
2013-02-12 11:22:00,48.4,31.5,29.93,WNW,293,3.1,6.9,52,0.00,,,0.01,WUHU216HW,2013-02-12 16:22:00,
2013-02-12 11:27:00,48.8,30.4,29.94,North,0,4.9,6.3,49,0.00,,,0.01,WUHU216HW,2013-02-12 16:27:00,
2013-02-12 11:32:00,49.0,31.6,29.93,ESE,113,2.9,5.1,51,0.00,,,0.01,WUHU216HW,2013-02-12 16:32:00,
2013-02-12 11:37:00,49.1,30.8,29.94,NNW,338,2.0,4.7,49,0.00,,,0.01,WUHU216HW,2013-02-12 16:37:00,
2013-02-12 11:42:00,49.3,32.0,29.94,NE,45,6.0,8.3,51,0.00,,,0.01,WUHU216HW,2013-02-12 16:42:00,
2013-02-12 11:47:00,49.3,32.0,29.94,NW,315,1.6,8.7,51,0.00,,,0.01,WUHU216HW,2013-02-12 16:47:00,
2013-02-12 11:52:00,49.7,30.8,29.94,NNE,23,3.8,8.7,48,0.00,,,0.01,WUHU216HW,2013-02-12 16:52:00,
2013-02-12 11:57:00,49.7,31.3,29.94,NNW,338,2.9,7.4,49,0.00,,,0.01,WUHU216HW,2013-02-12 16:57:00,
2013-02-12 12:02:00,49.7,31.3,29.94,NNE,23,2.7,9.4,49,0.00,,,0.01,WUHU216HW,2013-02-12 17:02:00,
2013-02-12 12:07:00,50.0,30.0,29.93,NNW,338,2.5,9.4,46,0.00,,,0.01,WUHU216HW,2013-02-12 17:07:00,
2013-02-12 12:12:00,50.0,30.5,29.93,NE,45,7.6,8.7,47,0.00,,,0.01,WUHU216HW,2013-02-12 17:12:00,
2013-02-12 12:17:00,49.7,30.3,29.92,NNW,338,5.4,11.6,47,0.00,,,0.01,WUHU216HW,2013-02-12 17:17:00,
2013-02-12 12:22:00,49.9,29.8,29.93,NNW,338,3.6,11.6,46,0.00,,,0.01,WUHU216HW,2013-02-12 17:22:00,
2013-02-12 12:27:00,49.7,30.3,29.92,NNE,23,2.5,9.8,47,0.00,,,0.01,WUHU216HW,2013-02-12 17:27:00,
2013-02-12 12:32:00,49.5,31.2,29.92,NNE,23,2.2,9.8,49,0.00,,,0.01,WUHU216HW,2013-02-12 17:32:00,
2013-02-12 12:37:00,50.2,31.9,29.92,SSE,158,3.8,9.2,49,0.00,,,0.01,WUHU216HW,2013-02-12 17:37:00,
2013-02-12 12:42:00,50.6,31.1,29.93,NNW,338,4.3,6.9,47,0.00,,,0.01,WUHU216HW,2013-02-12 17:42:00,
2013-02-12 12:47:00,50.8,31.2,29.93,SE,135,2.7,6.9,47,0.00,,,0.01,WUHU216HW,2013-02-12 17:47:00,
2013-02-12 12:52:00,50.9,31.3,29.93,North,0,3.1,6.9,47,0.00,,,0.01,WUHU216HW,2013-02-12 17:52:00,
2013-02-12 12:57:00,51.3,31.2,29.93,WSW,248,1.6,6.7,46,0.00,,,0.01,WUHU216HW,2013-02-12 17:57:00,
2013-02-12 13:02:00,51.1,31.0,29.94,ENE,68,1.8,6.7,46,0.00,,,0.01,WUHU216HW,2013-02-12 18:02:00,
2013-02-12 13:07:00,51.1,30.4,29.94,NE,45,3.1,9.6,45,0.00,,,0.01,WUHU216HW,2013-02-12 18:07:00,
2013-02-12 13:12:00,50.9,30.2,29.94,NNW,338,2.2,9.6,45,0.00,,,0.01,WUHU216HW,2013-02-12 18:12:00,
2013-02-12 13:17:00,50.9,30.8,29.94,North,0,4.5,7.6,46,0.00,,,0.01,WUHU216HW,2013-02-12 18:17:00,
2013-02-12 13:22:00,50.8,30.6,29.94,NNE,23,1.8,7.6,46,0.00,,,0.01,WUHU216HW,2013-02-12 18:22:00,
2013-02-12 13:27:00,50.9,29.7,29.94,West,270,4.0,7.6,44,0.00,,,0.01,WUHU216HW,2013-02-12 18:27:00,
2013-02-12 13:32:00,51.3,31.2,29.93,NW,315,4.0,6.3,46,0.00,,,0.01,WUHU216HW,2013-02-12 18:32:00,
2013-02-12 13:38:00,51.1,30.4,29.92,NW,315,1.6,7.6,45,0.00,,,0.01,WUHU216HW,2013-02-12 18:38:00,
2013-02-12 13:44:00,51.1,30.4,29.92,North,0,2.7,7.6,45,0.00,,,0.01,WUHU216HW,2013-02-12 18:44:00,
2013-02-12 13:49:00,51.5,30.7,29.92,NW,315,1.8,4.3,45,0.00,,,0.01,WUHU216HW,2013-02-12 18:49:00,
2013-02-12 13:54:00,51.3,31.2,29.92,NNW,338,2.9,5.6,46,0.00,,,0.01,WUHU216HW,2013-02-12 18:54:00,
2013-02-12 13:59:00,51.3,31.2,29.92,ENE,68,2.0,5.6,46,0.00,,,0.01,WUHU216HW,2013-02-12 18:59:00,
2013-02-12 14:04:00,51.1,30.4,29.92,WNW,293,4.7,5.1,45,0.00,,,0.01,WUHU216HW,2013-02-12 19:04:00,
2013-02-12 14:09:00,51.3,30.6,29.92,West,270,2.0,7.4,45,0.00,,,0.01,WUHU216HW,2013-02-12 19:09:00,
2013-02-12 14:14:00,51.3,31.2,29.92,WNW,293,1.8,7.4,46,0.00,,,0.01,WUHU216HW,2013-02-12 19:14:00,
2013-02-12 14:19:00,51.1,29.9,29.91,NW,315,5.8,5.8,44,0.00,,,0.01,WUHU216HW,2013-02-12 19:19:00,
2013-02-12 14:24:00,50.8,29.0,29.91,NNE,23,3.1,5.8,43,0.00,,,0.01,WUHU216HW,2013-02-12 19:24:00,
2013-02-12 14:29:00,50.8,30.1,29.91,ESE,113,0.9,7.6,45,0.00,,,0.01,WUHU216HW,2013-02-12 19:29:00,
2013-02-12 14:34:00,50.4,29.8,29.90,NNW,338,2.7,9.2,45,0.00,,,0.01,WUHU216HW,2013-02-12 19:34:00,
2013-02-12 14:39:00,50.6,30.5,29.90,North,0,2.9,9.2,46,0.00,,,0.01,WUHU216HW,2013-02-12 19:39:00,
2013-02-12 14:44:00,50.6,30.5,29.90,WSW,248,1.8,4.7,46,0.00,,,0.01,WUHU216HW,2013-02-12 19:44:00,
2013-02-12 14:49:00,50.6,29.3,29.89,WNW,293,2.5,6.3,44,0.00,,,0.01,WUHU216HW,2013-02-12 19:49:00,
2013-02-12 14:54:00,50.4,29.8,29.90,North,0,5.6,8.5,45,0.00,,,0.01,WUHU216HW,2013-02-12 19:54:00,
2013-02-12 14:59:00,49.9,29.3,29.90,NNE,23,3.6,8.5,45,0.00,,,0.01,WUHU216HW,2013-02-12 19:59:00,
2013-02-12 15:04:00,49.9,29.8,29.90,NNE,23,5.1,7.6,46,0.00,,,0.01,WUHU216HW,2013-02-12 20:04:00,
2013-02-12 15:09:00,49.7,29.6,29.90,North,0,4.7,7.4,46,0.00,,,0.01,WUHU216HW,2013-02-12 20:09:00,
2013-02-12 15:15:00,49.9,29.8,29.90,NW,315,3.4,7.4,46,0.00,,,0.01,WUHU216HW,2013-02-12 20:15:00,
2013-02-12 15:20:00,49.9,29.3,29.90,NNW,338,4.0,4.3,45,0.00,,,0.01,WUHU216HW,2013-02-12 20:20:00,
2013-02-12 15:25:00,49.9,29.3,29.90,NW,315,5.8,5.8,45,0.00,,,0.01,WUHU216HW,2013-02-12 20:25:00,
2013-02-12 15:30:00,49.5,28.9,29.90,ESE,113,3.1,8.1,45,0.00,,,0.01,WUHU216HW,2013-02-12 20:30:00,
2013-02-12 15:35:00,49.5,29.4,29.90,North,0,2.5,8.1,46,0.00,,,0.01,WUHU216HW,2013-02-12 20:35:00,
2013-02-12 15:40:00,49.5,29.4,29.89,NNE,23,2.5,6.7,46,0.00,,,0.01,WUHU216HW,2013-02-12 20:40:00,
2013-02-12 15:45:00,49.5,29.4,29.89,North,0,1.1,3.8,46,0.00,,,0.01,WUHU216HW,2013-02-12 20:45:00,
2013-02-12 15:50:00,49.3,29.4,29.88,North,0,2.7,4.5,46,0.00,,,0.01,WUHU216HW,2013-02-12 20:50:00,
2013-02-12 15:55:00,49.3,29.9,29.87,ESE,113,1.1,4.5,47,0.00,,,0.01,WUHU216HW,2013-02-12 20:55:00,
2013-02-12 16:00:00,49.3,29.9,29.85,West,270,2.7,6.3,47,0.00,,,0.01,WUHU216HW,2013-02-12 21:00:00,
2013-02-12 16:05:00,49.0,30.1,29.85,North,0,4.0,6.3,48,0.00,,,0.01,WUHU216HW,2013-02-12 21:05:00,
2013-02-12 16:10:00,48.6,29.2,29.85,North,0,2.9,5.4,47,0.00,,,0.01,WUHU216HW,2013-02-12 21:10:00,
2013-02-12 16:15:00,48.2,29.3,29.87,North,0,7.2,7.2,48,0.00,,,0.01,WUHU216HW,2013-02-12 21:15:00,
2013-02-12 16:20:00,47.9,28.4,29.88,North,0,4.3,8.9,47,0.00,,,0.01,WUHU216HW,2013-02-12 21:20:00,
2013-02-12 16:25:00,47.5,28.7,29.89,NW,315,2.2,8.9,48,0.00,,,0.01,WUHU216HW,2013-02-12 21:25:00,
2013-02-12 16:30:00,47.5,28.7,29.90,North,0,1.1,8.1,48,0.00,,,0.01,WUHU216HW,2013-02-12 21:30:00,
2013-02-12 16:35:00,47.3,29.1,29.90,NNW,338,1.8,5.4,49,0.00,,,0.01,WUHU216HW,2013-02-12 21:35:00,
2013-02-12 16:40:00,47.2,29.4,29.91,NNW,338,1.1,5.4,50,0.00,,,0.01,WUHU216HW,2013-02-12 21:40:00,
2013-02-12 16:45:00,46.6,29.0,29.91,WNW,293,1.6,3.4,50,0.00,,,0.01,WUHU216HW,2013-02-12 21:45:00,
2013-02-12 16:50:00,46.4,27.7,29.93,NNW,338,3.1,4.3,48,0.00,,,0.01,WUHU216HW,2013-02-12 21:50:00,
2013-02-12 16:55:00,46.4,28.3,29.93,ENE,68,1.8,4.3,49,0.00,,,0.01,WUHU216HW,2013-02-12 21:55:00,
2013-02-12 17:01:00,46.1,28.4,29.92,NE,45,1.8,4.0,50,0.00,,,0.01,WUHU216HW,2013-02-12 22:01:00,
2013-02-12 17:06:00,45.7,28.2,29.94,West,270,1.1,4.0,50,0.00,,,0.01,WUHU216HW,2013-02-12 22:06:00,
2013-02-12 17:11:00,45.4,28.3,29.94,NNW,338,1.1,3.4,51,0.00,,,0.01,WUHU216HW,2013-02-12 22:11:00,
2013-02-12 17:16:00,45.2,28.5,29.96,WSW,248,1.1,2.5,52,0.00,,,0.01,WUHU216HW,2013-02-12 22:16:00,
2013-02-12 17:21:00,45.0,28.5,29.97,NNW,338,3.6,3.6,52,0.00,,,0.01,WUHU216HW,2013-02-12 22:21:00,
2013-02-12 17:26:00,44.6,28.5,29.96,West,270,0.9,3.6,53,0.00,,,0.01,WUHU216HW,2013-02-12 22:26:00,
2013-02-12 17:31:00,44.3,28.2,29.96,West,270,0.4,3.6,53,0.00,,,0.01,WUHU216HW,2013-02-12 22:31:00,
2013-02-12 17:36:00,44.1,28.0,29.97,NNE,23,1.1,2.0,53,0.00,,,0.01,WUHU216HW,2013-02-12 22:36:00,
2013-02-12 17:41:00,43.7,28.2,29.96,NNW,338,0.4,2.0,54,0.00,,,0.01,WUHU216HW,2013-02-12 22:41:00,
2013-02-12 17:46:00,43.6,28.5,29.96,NNW,338,0.7,2.0,55,0.00,,,0.01,WUHU216HW,2013-02-12 22:46:00,
2013-02-12 17:51:00,43.2,28.1,29.97,NNE,23,1.1,2.0,55,0.00,,,0.01,WUHU216HW,2013-02-12 22:51:00,
2013-02-12 17:56:00,42.8,28.2,29.98,NNW,338,0.0,1.3,56,0.00,,,0.01,WUHU216HW,2013-02-12 22:56:00,
2013-02-12 18:01:00,42.5,28.3,29.98,NNE,23,0.7,1.3,57,0.00,,,0.01,WUHU216HW,2013-02-12 23:01:00,
2013-02-12 18:06:00,42.3,28.1,29.98,North,0,0.9,1.3,57,0.00,,,0.01,WUHU216HW,2013-02-12 23:06:00,
2013-02-12 18:11:00,42.1,28.4,29.97,North,0,2.2,2.9,58,0.00,,,0.01,WUHU216HW,2013-02-12 23:11:00,
2013-02-12 18:16:00,41.8,28.4,29.97,North,0,1.1,2.9,59,0.00,,,0.01,WUHU216HW,2013-02-12 23:16:00,
2013-02-12 18:21:00,41.6,28.3,29.97,NNE,23,1.1,3.4,59,0.00,,,0.01,WUHU216HW,2013-02-12 23:21:00,
2013-02-12 18:26:00,41.4,28.2,29.98,NNE,23,2.0,4.0,59,0.00,,,0.01,WUHU216HW,2013-02-12 23:26:00,
2013-02-12 18:31:00,41.2,28.5,29.98,NNW,338,0.0,4.0,60,0.00,,,0.01,WUHU216HW,2013-02-12 23:31:00,
2013-02-12 18:36:00,41.0,28.3,29.98,North,0,0.4,2.0,60,0.00,,,0.01,WUHU216HW,2013-02-12 23:36:00,
2013-02-12 18:41:00,40.7,27.9,29.99,North,0,0.0,1.3,60,0.00,,,0.01,WUHU216HW,2013-02-12 23:41:00,
2013-02-12 18:46:00,40.3,27.9,29.99,North,0,0.7,1.3,61,0.00,,,0.01,WUHU216HW,2013-02-12 23:46:00,
2013-02-12 18:51:00,40.0,27.9,29.98,North,0,1.8,2.9,62,0.00,,,0.01,WUHU216HW,2013-02-12 23:51:00,
2013-02-12 18:56:00,40.0,27.9,29.99,North,0,2.5,3.1,62,0.00,,,0.01,WUHU216HW,2013-02-12 23:56:00,
2013-02-12 19:01:00,40.0,28.4,29.99,North,0,1.8,3.1,63,0.00,,,0.01,WUHU216HW,2013-02-13 00:01:00,
2013-02-12 19:06:00,39.8,28.2,29.99,North,0,2.0,3.1,63,0.00,,,0.01,WUHU216HW,2013-02-13 00:06:00,
2013-02-12 19:11:00,39.8,28.2,29.99,North,0,1.8,3.6,63,0.00,,,0.01,WUHU216HW,2013-02-13 00:11:00,
2013-02-12 19:16:00,39.6,28.0,29.99,North,0,0.9,3.6,63,0.00,,,0.01,WUHU216HW,2013-02-13 00:16:00,
2013-02-12 19:21:00,39.4,27.8,29.99,North,0,1.6,3.4,63,0.00,,,0.01,WUHU216HW,2013-02-13 00:21:00,
2013-02-12 19:26:00,39.2,27.6,29.99,North,0,0.7,3.1,63,0.00,,,0.01,WUHU216HW,2013-02-13 00:26:00,
2013-02-12 19:31:00,39.2,27.6,29.99,North,0,0.4,3.1,63,0.00,,,0.01,WUHU216HW,2013-02-13 00:31:00,
2013-02-12 19:36:00,38.9,27.3,29.99,North,0,0.4,2.9,63,0.00,,,0.01,WUHU216HW,2013-02-13 00:36:00,
2013-02-12 19:41:00,38.9,27.3,29.99,North,0,1.8,2.5,63,0.00,,,0.01,WUHU216HW,2013-02-13 00:41:00,
2013-02-12 19:46:00,38.7,27.1,29.99,North,0,2.9,3.4,63,0.00,,,0.01,WUHU216HW,2013-02-13 00:46:00,
2013-02-12 19:51:00,38.5,26.9,30.00,NNE,23,1.6,3.4,63,0.00,,,0.01,WUHU216HW,2013-02-13 00:51:00,
2013-02-12 19:56:00,38.5,26.9,30.00,North,0,1.8,2.9,63,0.00,,,0.01,WUHU216HW,2013-02-13 00:56:00,
2013-02-12 20:01:00,38.3,27.2,30.00,North,0,2.5,4.3,64,0.00,,,0.01,WUHU216HW,2013-02-13 01:01:00,
2013-02-12 20:06:00,38.3,27.2,29.99,North,0,1.1,4.3,64,0.00,,,0.01,WUHU216HW,2013-02-13 01:06:00,
2013-02-12 20:11:00,38.2,27.0,29.99,North,0,1.1,2.7,64,0.00,,,0.01,WUHU216HW,2013-02-13 01:11:00,
2013-02-12 20:16:00,38.2,27.0,30.00,North,0,0.7,2.5,64,0.00,,,0.01,WUHU216HW,2013-02-13 01:16:00,
2013-02-12 20:21:00,38.0,26.8,29.99,NNE,23,2.7,3.4,64,0.00,,,0.01,WUHU216HW,2013-02-13 01:21:00,
2013-02-12 20:26:00,37.8,26.6,29.99,North,0,2.7,4.0,64,0.00,,,0.01,WUHU216HW,2013-02-13 01:26:00,
2013-02-12 20:31:00,37.8,26.6,29.98,North,0,2.5,4.0,64,0.00,,,0.01,WUHU216HW,2013-02-13 01:31:00,
2013-02-12 20:36:00,37.8,26.6,29.98,NW,315,0.4,3.8,64,0.00,,,0.01,WUHU216HW,2013-02-13 01:36:00,
2013-02-12 20:41:00,37.6,26.9,29.98,NW,315,0.0,3.8,65,0.00,,,0.01,WUHU216HW,2013-02-13 01:41:00,
2013-02-12 20:46:00,37.4,26.7,29.99,West,270,0.4,1.8,65,0.00,,,0.01,WUHU216HW,2013-02-13 01:46:00,
2013-02-12 20:51:00,37.1,26.4,29.98,West,270,0.0,0.7,65,0.00,,,0.01,WUHU216HW,2013-02-13 01:51:00,
2013-02-12 20:56:00,36.9,26.2,29.98,West,270,0.0,0.7,65,0.00,,,0.01,WUHU216HW,2013-02-13 01:56:00,
2013-02-12 21:01:00,36.7,26.5,29.98,NNW,338,0.0,0.4,66,0.00,,,0.01,WUHU216HW,2013-02-13 02:01:00,
2013-02-12 21:06:00,36.5,26.3,29.98,NW,315,0.0,0.4,66,0.00,,,0.01,WUHU216HW,2013-02-13 02:06:00,
2013-02-12 21:11:00,36.4,26.1,29.98,North,0,0.0,0.4,66,0.00,,,0.01,WUHU216HW,2013-02-13 02:11:00,
2013-02-12 21:16:00,36.4,26.1,29.98,NW,315,0.4,1.1,66,0.00,,,0.01,WUHU216HW,2013-02-13 02:16:00,
2013-02-12 21:21:00,36.2,26.3,29.98,West,270,0.9,1.1,67,0.00,,,0.01,WUHU216HW,2013-02-13 02:21:00,
2013-02-12 21:26:00,36.0,26.1,29.97,WNW,293,0.0,1.6,67,0.00,,,0.01,WUHU216HW,2013-02-13 02:26:00,
2013-02-12 21:31:00,36.0,26.1,29.97,NW,315,0.0,1.6,67,0.00,,,0.01,WUHU216HW,2013-02-13 02:31:00,
2013-02-12 21:36:00,36.0,26.5,29.97,NNW,338,0.0,1.1,68,0.00,,,0.01,WUHU216HW,2013-02-13 02:36:00,
2013-02-12 21:41:00,35.8,26.3,29.97,West,270,0.0,0.7,68,0.00,,,0.01,WUHU216HW,2013-02-13 02:41:00,
2013-02-12 21:46:00,35.6,26.1,29.97,West,270,0.0,0.7,68,0.00,,,0.01,WUHU216HW,2013-02-13 02:46:00,
2013-02-12 21:52:00,35.6,26.1,29.97,NW,315,0.0,0.4,68,0.00,,,0.01,WUHU216HW,2013-02-13 02:52:00,
2013-02-12 21:57:00,35.3,25.7,29.96,NW,315,0.0,0.0,68,0.00,,,0.01,WUHU216HW,2013-02-13 02:57:00,
2013-02-12 22:02:00,35.1,25.9,29.97,NW,315,0.0,0.0,69,0.00,,,0.01,WUHU216HW,2013-02-13 03:02:00,
2013-02-12 22:07:00,34.9,25.7,29.97,NW,315,0.2,0.2,69,0.00,,,0.01,WUHU216HW,2013-02-13 03:07:00,
2013-02-12 22:12:00,34.7,25.9,29.97,NNW,338,0.0,0.2,70,0.00,,,0.01,WUHU216HW,2013-02-13 03:12:00,
2013-02-12 22:17:00,34.6,25.7,29.96,North,0,0.4,0.9,70,0.00,,,0.01,WUHU216HW,2013-02-13 03:17:00,
2013-02-12 22:22:00,34.6,26.1,29.96,North,0,0.9,0.9,71,0.00,,,0.01,WUHU216HW,2013-02-13 03:22:00,
2013-02-12 22:27:00,34.4,25.9,29.96,North,0,0.0,0.9,71,0.00,,,0.01,WUHU216HW,2013-02-13 03:27:00,
2013-02-12 22:32:00,34.2,25.4,29.96,North,0,0.2,0.4,70,0.00,,,0.01,WUHU216HW,2013-02-13 03:32:00,
2013-02-12 22:37:00,34.2,25.8,29.96,North,0,0.7,1.6,71,0.00,,,0.01,WUHU216HW,2013-02-13 03:37:00,
2013-02-12 22:42:00,34.2,25.8,29.96,NNE,23,0.4,2.0,71,0.00,,,0.01,WUHU216HW,2013-02-13 03:42:00,
2013-02-12 22:47:00,34.2,25.8,29.97,NW,315,0.0,2.0,71,0.00,,,0.01,WUHU216HW,2013-02-13 03:47:00,
2013-02-12 22:52:00,34.0,25.6,29.97,West,270,0.0,0.9,71,0.00,,,0.01,WUHU216HW,2013-02-13 03:52:00,
2013-02-12 22:57:00,33.8,25.4,29.97,WNW,293,0.0,0.9,71,0.00,,,0.01,WUHU216HW,2013-02-13 03:57:00,
2013-02-12 23:02:00,33.8,25.4,29.97,NNW,338,0.0,0.7,71,0.00,,,0.01,WUHU216HW,2013-02-13 04:02:00,
2013-02-12 23:07:00,33.7,25.2,29.98,NW,315,0.0,0.9,71,0.00,,,0.01,WUHU216HW,2013-02-13 04:07:00,
2013-02-12 23:13:00,33.5,25.0,29.98,West,270,0.4,1.1,71,0.00,,,0.01,WUHU216HW,2013-02-13 04:13:00,
2013-02-12 23:18:00,33.5,25.4,29.98,West,270,0.0,1.1,72,0.00,,,0.01,WUHU216HW,2013-02-13 04:18:00,
2013-02-12 23:23:00,33.5,25.4,29.98,West,270,1.6,1.6,72,0.00,,,0.01,WUHU216HW,2013-02-13 04:23:00,
2013-02-12 23:28:00,33.5,25.7,29.98,NNW,338,0.2,1.6,73,0.00,,,0.01,WUHU216HW,2013-02-13 04:28:00,
2013-02-12 23:33:00,33.5,25.7,29.98,North,0,0.4,0.7,73,0.00,,,0.01,WUHU216HW,2013-02-13 04:33:00,
2013-02-12 23:38:00,33.5,25.7,29.98,North,0,0.2,1.1,73,0.00,,,0.01,WUHU216HW,2013-02-13 04:38:00,
2013-02-12 23:43:00,33.5,25.7,29.98,NNW,338,0.0,1.1,73,0.00,,,0.01,WUHU216HW,2013-02-13 04:43:00,
2013-02-12 23:48:00,33.5,25.7,29.98,North,0,0.0,1.8,73,0.00,,,0.01,WUHU216HW,2013-02-13 04:48:00,
2013-02-12 23:53:00,33.5,25.7,29.98,NNW,338,0.0,1.8,73,0.00,,,0.01,WUHU216HW,2013-02-13 04:53:00,
2013-02-12 23:58:00,33.5,25.7,29.98,NNW,338,0.4,0.7,73,0.00,,,0.01,WUHU216HW,2013-02-13 04:58:00,